Location: Hains Lake
(37.8540°N, 99.8578°W)
Time: 23:16:05
(UTC+00:00)

Explorer 7 - Pass Details

Date: 20 April 2021
Orbit: 484 x 677 km, 50.3° (Epoch: 14 May)

Event Time Altitude Azimuth Distance (km) Brightness Sun altitude
Rises 02:51:27 0° 249° (WSW) 2,611 10.8 -17.5°
Reaches altitude 10° 02:53:39 10° 255° (WSW) 1,753 10.0 -17.9°
Maximum altitude 02:57:29 45° 329° (NNW) 745 7.9 -18.5°
Drops below altitude 10° 03:01:34 10° 43° (NE) 1,869 9.4 -19.2°
Enters shadow 03:02:56 - 48° (NE) 2,391 9.9 -19.5°
